{"data":{"norad_id":60588,"epoch":"2026-09-21T20:53:44.623968Z","epoch_age_seconds":70087,"freshness":"FRESH","line1":"1 60588U 24150F   26264.87065537 -.00001265  00000+0 -26318-4 0  9999","line2":"2 60588  53.1607 111.0976 0001335  89.8984 270.2172 15.34383972118066","mean_motion":15.34383972,"eccentricity":0.0001335,"inclination_deg":53.1607,"raan_deg":111.0976,"arg_perigee_deg":89.8984,"mean_anomaly_deg":270.2172,"bstar":-2.6318e-5,"rev_number":11806,"period_min":93.848738404314,"perigee_km":461.83762068367,"apogee_km":463.66413774742,"semimajor_km":6840.8878792155,"source":"CELESTRAK","updated_at":"2026-09-22T09:00:49.271801Z"}}